Victoria, British Columbia

12:50 AM PDT on June 24, 2017 (GMT -0700)
Victoria International

Weather History for CYYJ - October, 2013

Change the Weather History Date:

Saturday, October 12, 2013

  Actual Average Record
Temperature  
Mean Temperature 50 °F -  
Max Temperature 57 °F 54 °F 64 °F (2001)
Min Temperature 42 °F 40 °F 35 °F (2002)
Degree Days  
Heating Degree Days 16    
Moisture  
Dew Point 46 °F    
Average Humidity 88    
Maximum Humidity 100    
Minimum Humidity 66    
Precipitation  
Precipitation 0.16 in 0.13 in - ()
Sea Level Pressure  
Sea Level Pressure 30.15 in    
Wind  
Wind Speed 4 mph ()    
Max Wind Speed 10 mph    
Max Gust Speed -    
Visibility 9.2 miles    
Events Rain    
Averages and records for this station are not official NWS values.
T = Trace of Precipitation, MM = Missing Value Source: Averaged Metar Reports

Daily Weather History Graph

Daily Weather History Graph

Search for Another Location

Airport or City:

Trip Planner

Search our weather history database for the weather conditions in past years. The results will help you decide how hot, cold, wet, or windy it might be!

Date:

Astronomy

Oct. 12, 2013 Rise Set
Actual Time 7:29 AM PDT 6:29 PM PDT
Civil Twilight 6:58 AM PDT 7:01 PM PDT
Nautical Twilight 6:21 AM PDT 7:37 PM PDT
Astronomical Twilight 5:45 AM PDT 8:13 PM PDT
Moon 3:10 PM PDT (10/12) 12:09 AM PDT (10/12)
Length of Visible Light 12h 02m
Length of Day
10h 59m
First Quarter, 60% of the Moon is Illuminated
Oct 12
First Quarter
Oct 18
Full
Oct 26
Last Quarter
Nov 3
New
Nov 9
First Quarter

Hourly Weather History & Observations

Time (PDT) Temp. Windchill Dew Point Humidity Pressure Visibility Wind Dir Wind Speed Gust Speed Precip Events Conditions
12:00 AM 48.2 °F - 46.4 °F 93% 30.09 in 30.0 mi WNW 2.3 mph - N/A Rain Light Rain
1:00 AM 48.2 °F - 48.2 °F 100% 30.10 in 20.0 mi WNW 2.3 mph - N/A Rain Light Rain
1:41 AM 48.2 °F - 48.2 °F 100% 30.11 in 12.0 mi WNW 3.5 mph - N/A Rain Rain
2:00 AM 48.2 °F - 48.2 °F 100% 30.11 in 10.0 mi WSW 2.3 mph - N/A Rain Light Rain
3:00 AM 48.2 °F - 48.2 °F 100% 30.11 in 6.0 mi WNW 4.6 mph - N/A Rain Light Rain
4:00 AM 48.2 °F - 48.2 °F 100% 30.10 in 6.0 mi WNW 4.6 mph - N/A Rain Light Rain
5:00 AM 49 °F - 48 °F 94% 30.11 in 6 mi WNW 5.8 mph - - Rain Light Rain
5:00 AM 48.2 °F - 48.2 °F 100% 30.10 in 6.0 mi WNW 4.6 mph - N/A Rain Light Rain
6:00 AM 48.2 °F - 48.2 °F 100% 30.11 in 3.0 mi WNW 4.6 mph - N/A Rain Light Rain
6:39 AM 48.2 °F - 46.4 °F 93% 30.12 in 6.0 mi NW 4.6 mph - N/A   Mostly Cloudy
7:00 AM 48.2 °F - 46.4 °F 93% 30.12 in 6.0 mi NW 2.3 mph - N/A Rain Light Rain
7:37 AM 48.2 °F - 46.4 °F 93% 30.12 in 10.0 mi NW 5.8 mph - N/A   Overcast
8:00 AM 48.2 °F - 46.4 °F 93% 30.13 in 20.0 mi NNW 3.5 mph - N/A   Mostly Cloudy
9:00 AM 48.2 °F - 46.4 °F 93% 30.14 in 30.0 mi NW 3.5 mph - N/A   Mostly Cloudy
10:00 AM 50.0 °F - 46.4 °F 87% 30.15 in 30.0 mi WNW 8.1 mph - N/A   Scattered Clouds
11:00 AM 52 °F - 47 °F 79% 30.15 in 28 mi West 6.9 mph - -   Partly Cloudy
11:00 AM 51.8 °F - 48.2 °F 88% 30.15 in 30.0 mi West 6.9 mph - N/A   Partly Cloudy
12:00 PM 53.6 °F - 46.4 °F 77% 30.16 in 30.0 mi WNW 8.1 mph - N/A   Mostly Cloudy
1:00 PM 55.4 °F - 46.4 °F 72% 30.16 in 30.0 mi WNW 10.4 mph - N/A   Scattered Clouds
2:00 PM 55.4 °F - 46.4 °F 72% 30.14 in 30.0 mi WNW 8.1 mph - N/A   Partly Cloudy
3:00 PM 57.2 °F - 46.4 °F 67% 30.14 in 30.0 mi WSW 5.8 mph - N/A   Partly Cloudy
4:00 PM 57.2 °F - 46.4 °F 67% 30.16 in 30.0 mi East 4.6 mph - N/A   Partly Cloudy
5:00 PM 55 °F - 47 °F 66% 30.17 in 28 mi East 4.6 mph - -   Scattered Clouds
5:00 PM 55.4 °F - 46.4 °F 72% 30.16 in 30.0 mi East 4.6 mph - N/A   Partly Cloudy
6:00 PM 51.8 °F - 46.4 °F 82% 30.17 in 30.0 mi South 4.6 mph - N/A   Partly Cloudy
7:00 PM 50.0 °F - 44.6 °F 82% 30.19 in 30.0 mi Variable 2.3 mph - N/A   Partly Cloudy
8:00 PM 46.4 °F - 44.6 °F 93% 30.20 in 30.0 mi West 2.3 mph - N/A   Partly Cloudy
9:00 PM 42.8 °F - 41.0 °F 93% 30.20 in 30.0 mi WSW 2.3 mph - N/A   Clear
10:00 PM 44.6 °F 43.1 °F 44.6 °F 100% 30.22 in 30.0 mi WSW 3.5 mph - N/A   Clear
11:00 PM 44 °F - 43 °F 97% 30.24 in 28 mi WSW 6.9 mph - -  
11:00 PM 44.6 °F 40.7 °F 42.8 °F 93% 30.23 in 30.0 mi WSW 6.9 mph - N/A   Clear